Time,TemperatureF,DewpointF,PressureIn,WindDirection,WindDirectionDegrees,WindSpeedMPH,WindSpeedGustMPH,Humidity,HourlyPrecipIn,Conditions,Clouds,dailyrainin,SolarRadiationWatts/m^2,SoftwareType,DateUTC
2013-11-23 00:21:00,33.0,33.0,-100.00,East,80,0.0,1.0,99,0.01,,,0.48,0.000000,,2013-11-23 07:21:00,
2013-11-23 00:32:00,33.0,33.0,-100.00,East,80,0.0,1.0,99,0.01,,,0.48,0.000000,,2013-11-23 07:32:00,
2013-11-23 00:42:00,33.0,33.0,-100.00,East,80,0.0,1.0,99,0.01,,,0.48,0.000000,,2013-11-23 07:42:00,
2013-11-23 00:52:00,33.0,33.0,-100.00,East,80,0.0,1.0,99,0.01,,,0.48,0.000000,,2013-11-23 07:52:00,
2013-11-23 01:21:00,33.0,33.0,-100.00,ENE,60,1.0,1.0,99,0.00,,,0.45,0.000000,,2013-11-23 08:21:00,
2013-11-23 01:32:00,33.0,33.0,-100.00,ENE,60,1.0,1.0,99,0.00,,,0.45,0.000000,,2013-11-23 08:32:00,
2013-11-23 01:42:00,33.0,33.0,-100.00,ENE,60,1.0,1.0,99,0.00,,,0.45,0.000000,,2013-11-23 08:42:00,
2013-11-23 01:52:00,33.0,33.0,-100.00,ENE,60,1.0,1.0,99,0.00,,,0.45,0.000000,,2013-11-23 08:52:00,
2013-11-23 02:22:00,33.0,33.0,-100.00,NNW,330,1.0,2.0,99,0.00,,,0.43,0.000000,,2013-11-23 09:22:00,
2013-11-23 02:33:00,33.0,33.0,-100.00,NNW,330,1.0,2.0,99,0.00,,,0.43,0.000000,,2013-11-23 09:33:00,
2013-11-23 02:43:00,33.0,33.0,-100.00,NNW,330,1.0,2.0,99,0.00,,,0.43,0.000000,,2013-11-23 09:43:00,
2013-11-23 02:54:00,33.0,33.0,-100.00,NNW,330,1.0,2.0,99,0.00,,,0.43,0.000000,,2013-11-23 09:54:00,
2013-11-23 03:23:00,33.0,33.0,-100.00,NW,320,1.0,3.0,99,0.00,,,0.42,0.000000,,2013-11-23 10:23:00,
2013-11-23 03:34:00,33.0,33.0,-100.00,NW,320,1.0,3.0,99,0.00,,,0.42,0.000000,,2013-11-23 10:34:00,
2013-11-23 03:42:00,33.0,33.0,-100.00,NW,320,1.0,3.0,99,0.00,,,0.42,0.000000,,2013-11-23 10:42:00,
2013-11-23 03:52:00,33.0,33.0,-100.00,NW,320,1.0,3.0,99,0.00,,,0.42,0.000000,,2013-11-23 10:52:00,
2013-11-23 04:22:00,33.0,33.0,-100.00,NNE,16,0.0,3.0,99,0.00,,,0.39,0.000000,,2013-11-23 11:22:00,
2013-11-23 04:33:00,33.0,33.0,-100.00,NNE,16,0.0,3.0,99,0.00,,,0.39,0.000000,,2013-11-23 11:33:00,
2013-11-23 04:42:00,33.0,33.0,-100.00,NNE,16,0.0,3.0,99,0.00,,,0.39,0.000000,,2013-11-23 11:42:00,
2013-11-23 04:52:00,33.0,33.0,-100.00,NNE,16,0.0,3.0,99,0.00,,,0.39,0.000000,,2013-11-23 11:52:00,
2013-11-23 05:22:00,33.0,33.0,-100.00,East,82,0.0,3.0,99,0.00,,,0.37,0.000000,,2013-11-23 12:22:00,
2013-11-23 05:32:00,33.0,33.0,-100.00,East,82,0.0,3.0,99,0.00,,,0.37,0.000000,,2013-11-23 12:32:00,
2013-11-23 05:42:00,33.0,33.0,-100.00,East,82,0.0,3.0,99,0.00,,,0.37,0.000000,,2013-11-23 12:42:00,
2013-11-23 05:52:00,33.0,33.0,-100.00,East,82,0.0,3.0,99,0.00,,,0.37,0.000000,,2013-11-23 12:52:00,
2013-11-23 06:22:00,33.0,33.0,-100.00,West,261,0.0,0.0,99,0.00,,,0.36,0.000000,,2013-11-23 13:22:00,
2013-11-23 06:32:00,33.0,33.0,-100.00,West,261,0.0,0.0,99,0.00,,,0.36,0.000000,,2013-11-23 13:32:00,
2013-11-23 06:42:00,33.0,33.0,-100.00,West,261,0.0,0.0,99,0.00,,,0.36,0.000000,,2013-11-23 13:42:00,
2013-11-23 06:52:00,33.0,33.0,-100.00,West,261,0.0,0.0,99,0.00,,,0.36,0.000000,,2013-11-23 13:52:00,
2013-11-23 07:21:00,33.0,33.0,-100.00,WNW,297,1.0,3.0,99,0.00,,,0.34,0.000000,,2013-11-23 14:21:00,
2013-11-23 07:32:00,33.0,33.0,-100.00,WNW,297,1.0,3.0,99,0.00,,,0.34,0.000000,,2013-11-23 14:32:00,
2013-11-23 07:42:00,33.0,33.0,-100.00,WNW,297,1.0,3.0,99,0.00,,,0.34,0.000000,,2013-11-23 14:42:00,
2013-11-23 07:52:00,33.0,33.0,-100.00,WNW,297,1.0,3.0,99,0.00,,,0.34,0.000000,,2013-11-23 14:52:00,
2013-11-23 08:22:00,33.0,33.0,-100.00,North,11,3.0,4.0,99,0.01,,,0.34,0.000000,,2013-11-23 15:22:00,
2013-11-23 08:33:00,33.0,33.0,-100.00,North,11,3.0,4.0,99,0.01,,,0.34,0.000000,,2013-11-23 15:33:00,
2013-11-23 08:43:00,33.0,33.0,-100.00,North,11,3.0,4.0,99,0.01,,,0.34,0.000000,,2013-11-23 15:43:00,
2013-11-23 08:54:00,33.0,33.0,-100.00,North,11,3.0,4.0,99,0.01,,,0.34,0.000000,,2013-11-23 15:54:00,
2013-11-23 09:23:00,33.0,33.0,-100.00,SSE,147,0.0,6.0,99,0.00,,,0.34,7.000000,,2013-11-23 16:23:00,
2013-11-23 09:33:00,33.0,33.0,-100.00,SSE,147,0.0,6.0,99,0.00,,,0.34,7.000000,,2013-11-23 16:33:00,
2013-11-23 09:43:00,33.0,33.0,-100.00,SSE,147,0.0,6.0,99,0.00,,,0.34,7.000000,,2013-11-23 16:43:00,
2013-11-23 09:53:00,33.0,33.0,-100.00,SSE,147,0.0,6.0,99,0.00,,,0.34,7.000000,,2013-11-23 16:53:00,
2013-11-23 10:22:00,32.0,32.0,-100.00,SW,231,3.0,5.0,99,0.00,,,0.34,15.000000,,2013-11-23 17:22:00,
2013-11-23 10:34:00,32.0,32.0,-100.00,SW,231,3.0,5.0,99,0.00,,,0.34,15.000000,,2013-11-23 17:34:00,
2013-11-23 10:42:00,32.0,32.0,-100.00,SW,231,3.0,5.0,99,0.00,,,0.34,15.000000,,2013-11-23 17:42:00,
2013-11-23 10:52:00,32.0,32.0,-100.00,SW,231,3.0,5.0,99,0.00,,,0.34,15.000000,,2013-11-23 17:52:00,
2013-11-23 11:22:00,34.0,34.0,-100.00,North,1,6.0,6.0,99,0.00,,,0.34,34.000000,,2013-11-23 18:22:00,
2013-11-23 11:32:00,34.0,34.0,-100.00,North,1,6.0,6.0,99,0.00,,,0.34,34.000000,,2013-11-23 18:32:00,
2013-11-23 11:42:00,34.0,34.0,-100.00,North,1,6.0,6.0,99,0.00,,,0.34,34.000000,,2013-11-23 18:42:00,
2013-11-23 11:52:00,34.0,34.0,-100.00,North,1,6.0,6.0,99,0.00,,,0.34,34.000000,,2013-11-23 18:52:00,
2013-11-23 12:21:00,34.0,34.0,-100.00,WNW,295,3.0,8.0,99,0.08,,,0.42,81.000000,,2013-11-23 19:21:00,
2013-11-23 12:32:00,34.0,34.0,-100.00,WNW,295,3.0,8.0,99,0.08,,,0.42,81.000000,,2013-11-23 19:32:00,
2013-11-23 12:42:00,34.0,34.0,-100.00,WNW,295,3.0,8.0,99,0.08,,,0.42,81.000000,,2013-11-23 19:42:00,
2013-11-23 12:52:00,34.0,34.0,-100.00,WNW,295,3.0,8.0,99,0.08,,,0.42,81.000000,,2013-11-23 19:52:00,
2013-11-23 13:21:00,38.0,36.0,-100.00,NW,306,3.0,9.0,93,0.11,,,0.52,206.000000,,2013-11-23 20:21:00,
2013-11-23 13:32:00,38.0,36.0,-100.00,NW,306,3.0,9.0,93,0.11,,,0.52,206.000000,,2013-11-23 20:32:00,
2013-11-23 13:42:00,38.0,36.0,-100.00,NW,306,3.0,9.0,93,0.11,,,0.52,206.000000,,2013-11-23 20:42:00,
2013-11-23 13:52:00,38.0,36.0,-100.00,NW,306,3.0,9.0,93,0.11,,,0.52,206.000000,,2013-11-23 20:52:00,
2013-11-23 14:21:00,39.0,37.0,-100.00,WNW,282,3.0,6.0,91,0.05,,,-99.99,331.000000,,2013-11-23 21:21:00,
2013-11-23 14:33:00,39.0,37.0,-100.00,WNW,282,3.0,6.0,91,0.05,,,-99.99,331.000000,,2013-11-23 21:33:00,
2013-11-23 14:43:00,39.0,37.0,-100.00,WNW,282,3.0,6.0,91,0.05,,,-99.99,331.000000,,2013-11-23 21:43:00,
2013-11-23 14:53:00,39.0,37.0,-100.00,WNW,282,3.0,6.0,91,0.05,,,-99.99,331.000000,,2013-11-23 21:53:00,
2013-11-23 15:23:00,38.0,37.0,-100.00,NNW,328,3.0,5.0,95,0.04,,,0.59,241.000000,,2013-11-23 22:23:00,
2013-11-23 15:33:00,38.0,37.0,-100.00,NNW,328,3.0,5.0,95,0.04,,,0.59,241.000000,,2013-11-23 22:33:00,
2013-11-23 15:43:00,38.0,37.0,-100.00,NNW,328,3.0,5.0,95,0.04,,,0.59,241.000000,,2013-11-23 22:43:00,
2013-11-23 15:52:00,38.0,37.0,-100.00,NNW,328,3.0,5.0,95,0.04,,,0.59,241.000000,,2013-11-23 22:52:00,
2013-11-23 16:21:00,37.0,36.0,-100.00,WSW,251,2.0,6.0,96,0.02,,,0.54,87.000000,,2013-11-23 23:21:00,
2013-11-23 16:33:00,37.0,36.0,-100.00,WSW,251,2.0,6.0,96,0.02,,,0.54,87.000000,,2013-11-23 23:33:00,
2013-11-23 16:42:00,37.0,36.0,-100.00,WSW,251,2.0,6.0,96,0.02,,,0.54,87.000000,,2013-11-23 23:42:00,
2013-11-23 16:53:00,37.0,36.0,-100.00,WSW,251,2.0,6.0,96,0.02,,,0.54,87.000000,,2013-11-23 23:53:00,
2013-11-23 17:21:00,38.0,37.0,-100.00,NE,52,0.0,5.0,98,0.00,,,0.47,71.000000,,2013-11-24 00:21:00,
2013-11-23 17:32:00,38.0,37.0,-100.00,NE,52,0.0,5.0,98,0.00,,,0.47,71.000000,,2013-11-24 00:32:00,
2013-11-23 17:42:00,38.0,37.0,-100.00,NE,52,0.0,5.0,98,0.00,,,0.47,71.000000,,2013-11-24 00:42:00,
2013-11-23 17:52:00,38.0,37.0,-100.00,NE,52,0.0,5.0,98,0.00,,,0.47,71.000000,,2013-11-24 00:52:00,
2013-11-23 18:22:00,36.0,36.0,-100.00,SE,139,0.0,4.0,99,0.00,,,0.46,12.000000,,2013-11-24 01:22:00,
2013-11-23 18:32:00,36.0,36.0,-100.00,SE,139,0.0,4.0,99,0.00,,,0.46,12.000000,,2013-11-24 01:32:00,
2013-11-23 18:42:00,36.0,36.0,-100.00,SE,139,0.0,4.0,99,0.00,,,0.46,12.000000,,2013-11-24 01:42:00,
2013-11-23 18:52:00,36.0,36.0,-100.00,SE,139,0.0,4.0,99,0.00,,,0.46,12.000000,,2013-11-24 01:52:00,
2013-11-23 19:22:00,36.0,36.0,-100.00,East,100,0.0,3.0,99,0.02,,,0.43,0.000000,,2013-11-24 02:22:00,
2013-11-23 19:32:00,36.0,36.0,-100.00,East,100,0.0,3.0,99,0.02,,,0.43,0.000000,,2013-11-24 02:32:00,
2013-11-23 19:42:00,36.0,36.0,-100.00,East,100,0.0,3.0,99,0.02,,,0.43,0.000000,,2013-11-24 02:42:00,
2013-11-23 19:52:00,36.0,36.0,-100.00,East,100,0.0,3.0,99,0.02,,,0.43,0.000000,,2013-11-24 02:52:00,
2013-11-23 20:22:00,37.0,37.0,-100.00,SW,232,0.0,5.0,99,0.00,,,0.36,0.000000,,2013-11-24 03:22:00,
2013-11-23 20:33:00,37.0,37.0,-100.00,SW,232,0.0,5.0,99,0.00,,,0.36,0.000000,,2013-11-24 03:33:00,
2013-11-23 20:43:00,37.0,37.0,-100.00,SW,232,0.0,5.0,99,0.00,,,0.36,0.000000,,2013-11-24 03:43:00,
2013-11-23 20:53:00,37.0,37.0,-100.00,SW,232,0.0,5.0,99,0.00,,,0.36,0.000000,,2013-11-24 03:53:00,
2013-11-23 21:23:00,36.0,36.0,-100.00,NW,311,3.0,3.0,99,0.03,,,0.38,0.000000,,2013-11-24 04:23:00,
2013-11-23 21:33:00,36.0,36.0,-100.00,NW,311,3.0,3.0,99,0.03,,,0.38,0.000000,,2013-11-24 04:33:00,
2013-11-23 21:42:00,36.0,36.0,-100.00,NW,311,3.0,3.0,99,0.03,,,0.38,0.000000,,2013-11-24 04:42:00,
2013-11-23 21:53:00,36.0,36.0,-100.00,NW,311,3.0,3.0,99,0.03,,,0.38,0.000000,,2013-11-24 04:53:00,
2013-11-23 22:22:00,37.0,37.0,-100.00,NNW,334,2.0,6.0,99,0.05,,,0.42,0.000000,,2013-11-24 05:22:00,
2013-11-23 22:33:00,37.0,37.0,-100.00,NNW,334,2.0,6.0,99,0.05,,,0.42,0.000000,,2013-11-24 05:33:00,
2013-11-23 22:43:00,37.0,37.0,-100.00,NNW,334,2.0,6.0,99,0.05,,,0.42,0.000000,,2013-11-24 05:43:00,
2013-11-23 22:53:00,37.0,37.0,-100.00,NNW,334,2.0,6.0,99,0.05,,,0.42,0.000000,,2013-11-24 05:53:00,
2013-11-23 23:21:00,35.0,35.0,-100.00,North,7,3.0,4.0,99,0.05,,,0.47,0.000000,,2013-11-24 06:21:00,
2013-11-23 23:32:00,35.0,35.0,-100.00,North,7,3.0,4.0,99,0.05,,,0.47,0.000000,,2013-11-24 06:32:00,
2013-11-23 23:42:00,35.0,35.0,-100.00,North,7,3.0,4.0,99,0.05,,,0.47,0.000000,,2013-11-24 06:42:00,
2013-11-23 23:52:00,35.0,35.0,-100.00,North,7,3.0,4.0,99,0.05,,,0.47,0.000000,,2013-11-24 06:52:00,